Location: San Francisco
(37.7750°N, 122.4180°W)
Time: 15:13:33
(UTC-08:00)

Daily predictions for brighter satellites

Satellite Brightness Start Highest point End
(mag) Time Altitude Azimuth Time Altitude Azimuth Time Altitude Azimuth
USA 215 4.4 18:17:22 10° ENE 18:22:18 23° ESE 18:27:12 10° S
Cosmos 2237 Rocket 4.0 18:18:53 10° NW 18:24:01 37° WSW 18:29:07 10° S
Okean 3 3.4 18:20:44 10° N 18:24:55 75° E 18:29:05 10° SSE
Tiangong 2 3.8 18:24:02 10° W 18:26:22 19° SW 18:28:41 10° SSE
H-2A R/B 3.3 18:26:14 10° SE 18:29:50 36° ENE 18:33:25 10° N
Envisat 4.4 18:28:04 10° ESE 18:31:21 18° ENE 18:34:38 10° NNE
SL-16 R/B 2.3 18:25:40 10° NNW 18:31:22 85° WSW 18:37:01 10° SSE
Aureole 3 4.3 18:27:31 10° SSW 18:33:10 69° W 18:37:35 10° N
Cosmos 2297 Rocket 4.2 18:29:21 10° WSW 18:34:14 29° WNW 18:39:07 10° N
COSMO-SKYMED 1 3.2 18:30:07 10° N 18:34:24 60° WNW 18:38:40 10° SSW
OAO 2 Rocket 3.5 18:33:53 10° W 18:38:49 64° S 18:43:27 11° E
Sich 1 Rocket 3.5 18:37:14 10° S 18:41:43 75° E 18:46:10 10° N
FALCON 9 R/B 3.9 18:35:46 10° W 18:41:54 73° S 19:04:53 12° ESE
Cosmos 921 Rocket 3.0 18:40:29 10° N 18:44:59 69° ENE 18:49:24 10° SSE
CENTAUR R/B 3.4 18:39:16 10° SW 18:45:03 50° NW 18:51:40 10° NNE
CZ-4C R/B 3.9 18:39:29 10° NNW 18:45:18 26° NE 18:50:37 13° E
Cosmos 1812 4.1 18:41:51 10° NNW 18:45:33 44° W 18:49:14 10° SSW
Meteor 1-4 Rocket 3.2 18:45:03 10° SSE 18:48:09 30° E 18:51:21 10° NNE
SJ-6B 3.8 18:45:49 10° SE 18:48:58 26° ENE 18:52:13 10° NNE
Cosmos 44 Rocket 4.3 18:44:16 10° NW 18:49:12 53° WSW 18:54:12 10° SSE
Cosmos 1603 4.0 18:45:03 10° N 18:50:26 44° ENE 18:55:46 10° SE
Okean 2 Rocket 3.4 18:47:03 10° SSE 18:51:09 41° E 18:55:18 10° NNE
Cosmos 1269 Rocket 4.2 18:46:42 10° SSW 18:51:58 80° WNW 18:57:17 10° NNE
Tsikada Rocket 4.1 18:48:15 10° S 18:54:31 60° E 19:00:48 10° NNE
CZ-2D R/B 4.2 18:53:13 10° SE 18:56:31 27° ENE 18:59:50 10° NNE
USA 32 4.0 18:51:32 10° S 18:56:46 84° E 19:02:01 10° N
Thor Agena Rocket 4.0 18:52:20 10° NNE 18:56:59 36° E 19:01:35 10° SSE
COSMOS 2455 3.0 18:51:32 10° S 18:57:19 52° ESE 19:03:09 10° NE
Cosmos 2263 Rocket 2.7 18:52:55 10° SSE 18:57:53 34° ESE 19:02:53 10° NE
ALOS 3.8 18:55:52 10° SSW 19:00:14 39° W 19:04:38 10° NNW
Iridium 4 Rocket 3.2 18:55:50 10° N 19:00:30 84° W 19:04:47 10° S
Cosmos 2151 Rocket 4.4 18:57:20 10° SSE 19:01:06 27° E 19:04:53 10° NNE
Cosmos 1602 3.6 18:58:00 10° S 19:01:54 79° E 19:05:47 10° N
Cosmos 1464 Rocket 4.3 18:58:12 10° NNW 19:04:17 68° W 19:10:22 10° S
Okean 1 3.6 19:02:55 10° NNW 19:06:53 68° W 19:10:48 10° S
Meteor 1-13 Rocket 4.2 19:05:22 10° N 19:10:46 55° ENE 19:16:10 10° SSE
ATLAS CENTAUR R/B 2.5 19:11:16 10° N 19:14:52 26° NE 19:15:26 25° ENE
Cosmos 1331 Rocket 4.0 19:11:46 10° N 19:17:02 58° ENE 19:22:13 10° SSE
Spot 2 Rocket 4.5 19:20:40 25° ENE 19:20:43 25° ENE 19:24:50 10° NNE
BREEZE-M DEB (TANK) 2.4 19:19:13 10° NW 19:21:32 41° NE 19:21:57 38° ENE
Cosmos 2346 Rocket 4.4 19:17:36 10° S 19:23:47 78° E 19:29:57 10° N
CZ-3C R/B 3.9 19:23:41 10° S 19:27:12 17° SSE 19:29:40 16° SE
GPS 2-05 Rocket1 2.8 19:24:59 10° WSW 19:28:06 51° S 19:28:14 51° SSE
Cosmos 1975 Rocket 3.7 19:25:09 10° NNW 19:29:32 58° W 19:33:55 10° S
ARGOS Delta rocket 3.6 19:26:23 10° NNE 19:31:07 81° E 19:35:36 10° S
Resurs 1-3 4.2 19:31:42 35° ENE 19:31:42 35° ENE 19:35:16 10° N
Meteor 1-5 Rocket 4.3 19:28:50 10° S 19:34:37 64° E 19:40:32 10° NNE
Meteor 2-4 Rocket 3.6 19:29:25 10° N 19:35:10 76° E 19:40:43 10° SSE
Cosmos 1536 2.7 19:33:11 10° S 19:37:12 75° E 19:41:16 10° N
BREEZE-M R/B 4.0 19:34:31 10° NW 19:37:32 80° NE 19:41:53 27° ESE
Cosmos 1184 Rocket 2.7 19:35:49 10° N 19:39:04 85° WNW 19:39:04 85° WNW
Lacrosse 5 rocket 1.8 19:35:59 10° SSW 19:38:39 39° S 19:38:39 39° S
Cosmos 2251 Rocket 3.3 19:34:46 10° SSW 19:39:59 79° ESE 19:45:14 10° NNE
SeaSat 1 2.6 19:41:29 46° E 19:42:15 51° ENE 19:47:02 10° NNW
CZ-3 Stage 3 3.6 19:42:19 10° WSW 19:44:23 16° SSW 19:44:45 16° S
ERS-2 4.0 19:43:47 10° SSW 19:47:06 31° W 19:50:25 10° NW
Cosmos 1302 Rocket 3.9 19:44:15 10° NNW 19:49:24 63° ENE 19:50:10 56° ESE
Cosmos 1634 Rocket 3.8 19:45:53 10° N 19:52:04 82° E 19:58:14 10° S
Resurs 01 Rocket 1.8 19:53:51 54° NNE 19:53:51 54° NNE 19:57:30 10° N
Cosmos 1943 3.1 19:48:04 10° NNW 19:53:46 84° ENE 19:55:59 39° SSE
Alouette 2 Rocket 4.3 19:51:20 10° SSW 19:54:46 43° WNW 19:58:23 10° N
Meteor 1-11 Rocket 4.4 19:51:46 10° SSW 19:57:14 56° WNW 20:02:52 10° N
Cosmos 1536 Rocket 3.6 19:55:43 10° N 19:59:37 69° N 19:59:37 69° N
Cosmos 2142 Rocket 4.4 19:57:46 10° N 20:04:09 87° E 20:09:10 17° S
USA 215 3.2 20:02:13 30° NE 20:05:43 85° NW 20:12:16 10° SW
Cosmos 1939 Rocket 4.4 20:11:20 30° NNW 20:11:20 30° NNW 20:13:28 10° NNW
Envisat 3.7 20:05:00 10° S 20:09:55 52° W 20:14:53 10° NNW
OAO 2 Rocket 4.3 20:18:38 10° W 20:22:25 40° SW 20:22:25 40° SW
Meteor 2-20 4.4 20:17:45 10° S 20:24:38 71° NNE 20:30:06 10° N
CZ-4C R/B 2.9 20:27:13 10° NW 20:34:36 82° WSW 20:35:53 66° S
USA 267 4.2 20:38:35 35° NNE 20:38:35 35° NNE 20:43:34 10° NNW
Cosmos 2263 Rocket 3.9 20:36:56 10° WSW 20:41:47 30° WNW 20:46:41 10° N
ATLAS CENTAUR R/B 3.9 20:50:01 10° NW 20:51:44 20° WNW 20:51:44 20° WNW
